Time,TemperatureF,DewpointF,PressureIn,WindDirection,WindDirectionDegrees,WindSpeedMPH,WindSpeedGustMPH,Humidity,HourlyPrecipIn,Conditions,Clouds,dailyrainin,SoftwareType,DateUTC
2013-08-20 00:02:00,67.2,62.9,30.05,NW,317,0.0,0.0,86,0.00,,---,0.00,VWS V14.00,2013-08-20 04:02:00,
2013-08-20 00:03:00,67.2,62.9,30.05,NW,317,0.0,0.0,86,0.00,,---,0.00,VWS V14.00,2013-08-20 04:03:00,
2013-08-20 00:08:00,67.0,62.7,30.06,NW,317,0.0,0.0,86,0.00,,---,0.00,VWS V14.00,2013-08-20 04:08:00,
2013-08-20 00:13:00,66.8,62.8,30.06,NW,317,0.0,0.0,87,0.00,,---,0.00,VWS V14.00,2013-08-20 04:13:00,
2013-08-20 00:18:00,66.6,62.6,30.06,NW,317,0.0,0.0,87,0.00,,---,0.00,VWS V14.00,2013-08-20 04:18:00,
2013-08-20 00:23:00,66.4,62.4,30.05,NW,317,0.0,0.0,87,0.00,,---,0.00,VWS V14.00,2013-08-20 04:23:00,
2013-08-20 00:28:00,66.3,62.3,30.05,NW,317,0.0,0.0,87,0.00,,---,0.00,VWS V14.00,2013-08-20 04:28:00,
2013-08-20 00:33:00,66.1,62.5,30.05,NW,317,0.0,0.0,88,0.00,,---,0.00,VWS V14.00,2013-08-20 04:33:00,
2013-08-20 00:38:00,66.0,62.0,30.05,NW,317,0.0,0.0,87,0.00,,---,0.00,VWS V14.00,2013-08-20 04:38:00,
2013-08-20 00:43:00,65.8,62.2,30.05,NW,317,0.0,0.0,88,0.00,,---,0.00,VWS V14.00,2013-08-20 04:43:00,
2013-08-20 00:48:00,65.7,62.0,30.05,NW,317,0.0,0.0,88,0.00,,---,0.00,VWS V14.00,2013-08-20 04:48:00,
2013-08-20 00:53:00,65.5,62.2,30.05,NW,317,0.0,0.0,89,0.00,,---,0.00,VWS V14.00,2013-08-20 04:53:00,
2013-08-20 00:58:00,65.3,62.0,30.05,NW,317,0.0,0.0,89,0.00,,---,0.00,VWS V14.00,2013-08-20 04:58:00,
2013-08-20 01:03:00,65.2,61.9,30.05,NW,317,0.0,0.0,89,0.00,,---,0.00,VWS V14.00,2013-08-20 05:03:00,
2013-08-20 01:08:00,65.0,61.7,30.05,NW,317,0.0,0.0,89,0.00,,---,0.00,VWS V14.00,2013-08-20 05:08:00,
2013-08-20 01:13:00,64.9,61.6,30.05,NW,317,0.0,0.0,89,0.00,,---,0.00,VWS V14.00,2013-08-20 05:13:00,
2013-08-20 01:18:00,64.7,61.4,30.05,NW,317,0.0,0.0,89,0.00,,---,0.00,VWS V14.00,2013-08-20 05:18:00,
2013-08-20 01:23:00,64.6,61.3,30.05,NW,317,0.0,0.0,89,0.00,,---,0.00,VWS V14.00,2013-08-20 05:23:00,
2013-08-20 01:28:00,64.5,61.5,30.05,NW,317,0.0,0.0,90,0.00,,---,0.00,VWS V14.00,2013-08-20 05:28:00,
2013-08-20 01:33:00,64.4,61.4,30.05,NW,317,0.0,0.0,90,0.00,,---,0.00,VWS V14.00,2013-08-20 05:33:00,
2013-08-20 01:38:00,64.3,61.3,30.05,NW,317,0.0,0.0,90,0.00,,---,0.00,VWS V14.00,2013-08-20 05:38:00,
2013-08-20 01:43:00,64.2,61.2,30.04,NW,317,0.0,0.0,90,0.00,,---,0.00,VWS V14.00,2013-08-20 05:43:00,
2013-08-20 01:48:00,64.0,61.0,30.04,NW,317,0.0,0.0,90,0.00,,---,0.00,VWS V14.00,2013-08-20 05:48:00,
2013-08-20 01:53:00,63.9,60.9,30.04,NW,317,0.0,0.0,90,0.00,,---,0.00,VWS V14.00,2013-08-20 05:53:00,
2013-08-20 01:59:00,63.8,61.1,30.04,NW,317,0.0,0.0,91,0.00,,---,0.00,VWS V14.00,2013-08-20 05:59:00,
2013-08-20 02:04:00,63.7,61.0,30.04,NW,317,0.0,0.0,91,0.00,,---,0.00,VWS V14.00,2013-08-20 06:04:00,
2013-08-20 02:09:00,63.6,60.9,30.05,NW,317,0.0,0.0,91,0.00,,---,0.00,VWS V14.00,2013-08-20 06:09:00,
2013-08-20 02:14:00,63.6,60.9,30.05,NW,317,0.0,0.0,91,0.00,,---,0.00,VWS V14.00,2013-08-20 06:14:00,
2013-08-20 02:19:00,63.5,60.8,30.05,NW,317,0.0,0.0,91,0.00,,---,0.00,VWS V14.00,2013-08-20 06:19:00,
2013-08-20 02:24:00,63.4,60.7,30.05,NW,317,0.0,0.0,91,0.00,,---,0.00,VWS V14.00,2013-08-20 06:24:00,
2013-08-20 02:29:00,63.3,60.6,30.05,NW,317,0.0,0.0,91,0.00,,---,0.00,VWS V14.00,2013-08-20 06:29:00,
2013-08-20 02:34:00,63.2,60.5,30.05,NW,317,0.0,0.0,91,0.00,,---,0.00,VWS V14.00,2013-08-20 06:34:00,
2013-08-20 02:39:00,63.1,60.4,30.05,NW,317,0.0,0.0,91,0.00,,---,0.00,VWS V14.00,2013-08-20 06:39:00,
2013-08-20 02:44:00,63.1,60.4,30.05,NW,317,0.0,0.0,91,0.00,,---,0.00,VWS V14.00,2013-08-20 06:44:00,
2013-08-20 02:49:00,63.0,60.6,30.05,NW,317,0.0,0.0,92,0.00,,---,0.00,VWS V14.00,2013-08-20 06:49:00,
2013-08-20 02:54:00,62.9,60.5,30.05,NW,317,0.0,0.0,92,0.00,,---,0.00,VWS V14.00,2013-08-20 06:54:00,
2013-08-20 02:59:00,62.8,60.5,30.05,NW,317,0.0,0.0,92,0.00,,---,0.00,VWS V14.00,2013-08-20 06:59:00,
2013-08-20 03:04:00,62.7,60.3,30.05,NW,317,0.0,0.0,92,0.00,,---,0.00,VWS V14.00,2013-08-20 07:04:00,
2013-08-20 03:09:00,62.6,60.2,30.05,NW,317,0.0,0.0,92,0.00,,---,0.00,VWS V14.00,2013-08-20 07:09:00,
2013-08-20 03:14:00,62.5,60.2,30.05,NW,317,0.0,0.0,92,0.00,,---,0.00,VWS V14.00,2013-08-20 07:14:00,
2013-08-20 03:19:00,62.5,60.2,30.05,NW,317,0.0,0.0,92,0.00,,---,0.00,VWS V14.00,2013-08-20 07:19:00,
2013-08-20 03:24:00,62.4,60.0,30.05,NW,317,0.0,0.0,92,0.00,,---,0.00,VWS V14.00,2013-08-20 07:24:00,
2013-08-20 03:29:00,62.3,60.0,30.05,NW,317,0.0,0.0,92,0.00,,---,0.00,VWS V14.00,2013-08-20 07:29:00,
2013-08-20 03:34:00,62.3,60.0,30.05,NW,317,0.0,0.0,92,0.00,,---,0.00,VWS V14.00,2013-08-20 07:34:00,
2013-08-20 03:39:00,62.3,60.0,30.05,NW,317,0.0,0.0,92,0.00,,---,0.00,VWS V14.00,2013-08-20 07:39:00,
2013-08-20 03:44:00,62.2,59.8,30.05,NW,317,0.0,0.0,92,0.00,,---,0.00,VWS V14.00,2013-08-20 07:44:00,
2013-08-20 03:49:00,62.1,59.8,30.05,NW,317,0.0,0.0,92,0.00,,---,0.00,VWS V14.00,2013-08-20 07:49:00,
2013-08-20 03:54:00,62.0,59.7,30.05,NW,317,0.0,0.0,92,0.00,,---,0.00,VWS V14.00,2013-08-20 07:54:00,
2013-08-20 03:59:00,62.0,59.7,30.05,NW,317,0.0,0.0,92,0.00,,---,0.00,VWS V14.00,2013-08-20 07:59:00,
2013-08-20 04:04:00,61.9,59.5,30.05,NW,317,0.0,0.0,92,0.00,,---,0.00,VWS V14.00,2013-08-20 08:04:00,
2013-08-20 04:09:00,61.8,59.5,30.05,NW,317,0.0,0.0,92,0.00,,---,0.00,VWS V14.00,2013-08-20 08:09:00,
2013-08-20 04:14:00,61.7,59.4,30.05,NW,317,0.0,0.0,92,0.00,,---,0.00,VWS V14.00,2013-08-20 08:14:00,
2013-08-20 04:19:00,61.6,59.3,30.05,NW,317,0.0,0.0,92,0.00,,---,0.00,VWS V14.00,2013-08-20 08:19:00,
2013-08-20 04:24:00,61.6,59.3,30.05,NW,317,0.0,0.0,92,0.00,,---,0.00,VWS V14.00,2013-08-20 08:24:00,
2013-08-20 04:29:00,61.5,59.5,30.04,NW,317,0.0,0.0,93,0.00,,---,0.00,VWS V14.00,2013-08-20 08:29:00,
2013-08-20 04:34:00,61.4,59.4,30.04,NW,317,0.0,0.0,93,0.00,,---,0.00,VWS V14.00,2013-08-20 08:34:00,
2013-08-20 04:39:00,61.3,59.0,30.04,NW,317,0.0,0.0,92,0.00,,---,0.00,VWS V14.00,2013-08-20 08:39:00,
2013-08-20 04:45:00,61.3,59.0,30.05,NW,317,0.0,0.0,92,0.00,,---,0.00,VWS V14.00,2013-08-20 08:45:00,
2013-08-20 04:50:00,61.2,58.9,30.05,NW,317,0.0,0.0,92,0.00,,---,0.00,VWS V14.00,2013-08-20 08:50:00,
2013-08-20 04:55:00,61.2,59.2,30.05,NW,317,0.0,0.0,93,0.00,,---,0.00,VWS V14.00,2013-08-20 08:55:00,
2013-08-20 05:00:00,61.1,59.1,30.05,NW,317,0.0,0.0,93,0.00,,---,0.00,VWS V14.00,2013-08-20 09:00:00,
2013-08-20 05:05:00,61.0,59.0,30.05,NW,317,0.0,0.0,93,0.00,,---,0.00,VWS V14.00,2013-08-20 09:05:00,
2013-08-20 05:10:00,60.9,58.9,30.06,NW,317,0.0,0.0,93,0.00,,---,0.00,VWS V14.00,2013-08-20 09:10:00,
2013-08-20 05:15:00,60.9,58.9,30.06,NW,317,0.0,0.0,93,0.00,,---,0.00,VWS V14.00,2013-08-20 09:15:00,
2013-08-20 05:20:00,60.8,58.8,30.06,NW,317,0.0,0.0,93,0.00,,---,0.00,VWS V14.00,2013-08-20 09:20:00,
2013-08-20 05:25:00,60.8,58.8,30.06,NW,317,0.0,0.0,93,0.00,,---,0.00,VWS V14.00,2013-08-20 09:25:00,
2013-08-20 05:30:00,60.7,58.7,30.06,NW,317,0.0,0.0,93,0.00,,---,0.00,VWS V14.00,2013-08-20 09:30:00,
2013-08-20 05:35:00,60.7,58.7,30.06,NW,317,0.0,0.0,93,0.00,,---,0.00,VWS V14.00,2013-08-20 09:35:00,
2013-08-20 05:40:00,60.6,58.6,30.06,NW,317,0.0,0.0,93,0.00,,---,0.00,VWS V14.00,2013-08-20 09:40:00,
2013-08-20 05:45:00,60.6,58.6,30.06,NW,317,0.0,0.0,93,0.00,,---,0.00,VWS V14.00,2013-08-20 09:45:00,
2013-08-20 05:50:00,60.5,58.5,30.07,NW,317,0.0,0.0,93,0.00,,---,0.00,VWS V14.00,2013-08-20 09:50:00,
2013-08-20 05:55:00,60.5,58.5,30.07,NW,317,0.0,0.0,93,0.00,,---,0.00,VWS V14.00,2013-08-20 09:55:00,
2013-08-20 06:00:00,60.4,58.4,30.07,NW,317,0.0,0.0,93,0.00,,---,0.00,VWS V14.00,2013-08-20 10:00:00,
2013-08-20 06:05:00,60.4,58.4,30.07,NW,317,0.0,0.0,93,0.00,,---,0.00,VWS V14.00,2013-08-20 10:05:00,
2013-08-20 06:10:00,60.4,58.4,30.07,NW,317,0.0,0.0,93,0.00,,---,0.00,VWS V14.00,2013-08-20 10:10:00,
2013-08-20 06:15:00,60.4,58.4,30.07,NW,317,0.0,0.0,93,0.00,,---,0.00,VWS V14.00,2013-08-20 10:15:00,
2013-08-20 06:20:00,60.4,58.4,30.08,NW,317,0.0,0.0,93,0.00,,---,0.00,VWS V14.00,2013-08-20 10:20:00,
2013-08-20 06:25:00,60.4,58.4,30.08,NW,317,0.0,0.0,93,0.00,,---,0.00,VWS V14.00,2013-08-20 10:25:00,
2013-08-20 06:30:00,60.3,58.3,30.08,NW,317,0.0,0.0,93,0.00,,---,0.00,VWS V14.00,2013-08-20 10:30:00,
2013-08-20 06:35:00,60.3,58.3,30.08,NW,317,0.0,0.0,93,0.00,,---,0.00,VWS V14.00,2013-08-20 10:35:00,
2013-08-20 06:40:00,60.3,58.3,30.08,NW,317,0.0,0.0,93,0.00,,---,0.00,VWS V14.00,2013-08-20 10:40:00,
2013-08-20 06:45:00,60.3,58.3,30.08,NW,317,0.0,0.0,93,0.00,,---,0.00,VWS V14.00,2013-08-20 10:45:00,
2013-08-20 06:50:00,60.4,58.4,30.08,NW,317,0.0,0.0,93,0.00,,---,0.00,VWS V14.00,2013-08-20 10:50:00,
2013-08-20 06:55:00,60.4,58.7,30.09,NW,317,0.0,0.0,94,0.00,,---,0.00,VWS V14.00,2013-08-20 10:55:00,
2013-08-20 07:00:00,60.4,58.7,30.09,NW,317,0.0,0.0,94,0.00,,---,0.00,VWS V14.00,2013-08-20 11:00:00,
2013-08-20 07:05:00,60.6,58.9,30.09,NW,317,0.0,0.0,94,0.00,,---,0.00,VWS V14.00,2013-08-20 11:05:00,
2013-08-20 07:10:00,60.8,59.1,30.09,NW,317,0.0,0.0,94,0.00,,---,0.00,VWS V14.00,2013-08-20 11:10:00,
2013-08-20 07:15:00,61.0,59.3,30.10,NW,317,0.0,0.0,94,0.00,,---,0.00,VWS V14.00,2013-08-20 11:15:00,
2013-08-20 07:21:00,61.3,59.6,30.10,NW,317,0.0,0.0,94,0.00,,---,0.00,VWS V14.00,2013-08-20 11:21:00,
2013-08-20 07:26:00,61.6,59.9,30.10,NW,317,0.0,0.0,94,0.00,,---,0.00,VWS V14.00,2013-08-20 11:26:00,
2013-08-20 07:31:00,62.0,60.3,30.10,NW,317,0.0,0.0,94,0.00,,---,0.00,VWS V14.00,2013-08-20 11:31:00,
2013-08-20 07:36:00,62.3,60.6,30.10,NW,317,0.0,0.0,94,0.00,,---,0.00,VWS V14.00,2013-08-20 11:36:00,
2013-08-20 07:41:00,62.6,61.2,30.10,NW,317,0.0,0.0,95,0.00,,---,0.00,VWS V14.00,2013-08-20 11:41:00,
2013-08-20 07:46:00,62.9,61.2,30.11,NW,317,0.0,0.0,94,0.00,,---,0.00,VWS V14.00,2013-08-20 11:46:00,
2013-08-20 07:51:00,63.3,61.8,30.11,NW,317,0.0,0.0,95,0.00,,---,0.00,VWS V14.00,2013-08-20 11:51:00,
2013-08-20 07:56:00,63.6,62.2,30.11,NW,317,0.0,0.0,95,0.00,,---,0.00,VWS V14.00,2013-08-20 11:56:00,
2013-08-20 08:01:00,64.0,62.5,30.11,NW,317,0.0,0.0,95,0.00,,---,0.00,VWS V14.00,2013-08-20 12:01:00,
2013-08-20 08:06:00,64.3,62.8,30.11,NW,317,0.0,0.0,95,0.00,,---,0.00,VWS V14.00,2013-08-20 12:06:00,
2013-08-20 08:11:00,64.6,63.1,30.11,NW,317,0.0,0.0,95,0.00,,---,0.00,VWS V14.00,2013-08-20 12:11:00,
2013-08-20 08:16:00,65.0,63.5,30.11,NW,317,0.0,0.0,95,0.00,,---,0.00,VWS V14.00,2013-08-20 12:16:00,
2013-08-20 08:21:00,65.5,64.0,30.11,NW,317,0.0,0.0,95,0.00,,---,0.00,VWS V14.00,2013-08-20 12:21:00,
2013-08-20 08:26:00,66.0,64.2,30.11,NW,317,0.0,0.0,94,0.00,,---,0.00,VWS V14.00,2013-08-20 12:26:00,
2013-08-20 08:31:00,66.6,64.8,30.11,NW,317,0.0,0.0,94,0.00,,---,0.00,VWS V14.00,2013-08-20 12:31:00,
2013-08-20 08:36:00,67.1,65.0,30.11,NW,317,0.0,0.0,93,0.00,,---,0.00,VWS V14.00,2013-08-20 12:36:00,
2013-08-20 08:41:00,67.7,65.0,30.11,NW,317,0.0,0.0,91,0.00,,---,0.00,VWS V14.00,2013-08-20 12:41:00,
2013-08-20 08:46:00,68.2,64.8,30.11,NW,317,0.0,0.0,89,0.00,,---,0.00,VWS V14.00,2013-08-20 12:46:00,
2013-08-20 08:51:00,68.9,65.5,30.11,NW,317,0.0,0.0,89,0.00,,---,0.00,VWS V14.00,2013-08-20 12:51:00,
2013-08-20 08:56:00,69.5,65.5,30.11,NW,317,0.0,0.0,87,0.00,,---,0.00,VWS V14.00,2013-08-20 12:56:00,
2013-08-20 09:01:00,70.1,66.1,30.11,NW,317,0.0,0.0,87,0.00,,---,0.00,VWS V14.00,2013-08-20 13:01:00,
2013-08-20 09:06:00,70.8,66.1,30.11,NW,317,0.0,0.0,85,0.00,,---,0.00,VWS V14.00,2013-08-20 13:06:00,
2013-08-20 09:11:00,71.5,66.8,30.11,NW,317,0.0,0.0,85,0.00,,---,0.00,VWS V14.00,2013-08-20 13:11:00,
2013-08-20 09:16:00,72.1,66.7,30.11,NW,317,0.0,0.0,83,0.00,,---,0.00,VWS V14.00,2013-08-20 13:16:00,
2013-08-20 09:21:00,72.9,66.7,30.11,NW,317,0.0,0.0,81,0.00,,---,0.00,VWS V14.00,2013-08-20 13:21:00,
2013-08-20 09:26:00,73.6,67.1,30.11,NW,317,0.0,0.0,80,0.00,,---,0.00,VWS V14.00,2013-08-20 13:26:00,
2013-08-20 09:31:00,74.1,67.2,30.11,NW,317,0.0,0.0,79,0.00,,---,0.00,VWS V14.00,2013-08-20 13:31:00,
2013-08-20 09:36:00,74.4,66.3,30.11,NW,317,0.0,0.0,76,0.00,,---,0.00,VWS V14.00,2013-08-20 13:36:00,
2013-08-20 09:41:00,74.7,66.6,30.11,NW,317,1.0,4.0,76,0.00,,---,0.00,VWS V14.00,2013-08-20 13:41:00,
2013-08-20 09:46:00,74.9,66.8,30.11,NW,317,0.0,4.0,76,0.00,,---,0.00,VWS V14.00,2013-08-20 13:46:00,
2013-08-20 09:51:00,75.2,66.7,30.11,NW,317,0.0,4.0,75,0.00,,---,0.00,VWS V14.00,2013-08-20 13:51:00,
2013-08-20 09:57:00,75.6,67.1,30.11,NW,317,0.0,4.0,75,0.00,,---,0.00,VWS V14.00,2013-08-20 13:57:00,
2013-08-20 10:02:00,76.0,67.1,30.12,NW,317,0.0,0.0,74,0.00,,---,0.00,VWS V14.00,2013-08-20 14:02:00,
2013-08-20 10:07:00,76.2,66.9,30.11,NW,317,0.0,4.0,73,0.00,,---,0.00,VWS V14.00,2013-08-20 14:07:00,
2013-08-20 10:12:00,76.4,66.7,30.12,NW,317,0.0,4.0,72,0.00,,---,0.00,VWS V14.00,2013-08-20 14:12:00,
2013-08-20 10:17:00,76.7,68.2,30.11,NW,317,0.0,4.0,75,0.00,,---,0.00,VWS V14.00,2013-08-20 14:17:00,
2013-08-20 10:22:00,77.0,66.9,30.12,NW,317,0.0,4.0,71,0.00,,---,0.00,VWS V14.00,2013-08-20 14:22:00,
2013-08-20 10:27:00,77.3,67.2,30.11,NW,317,2.0,4.0,71,0.00,,---,0.00,VWS V14.00,2013-08-20 14:27:00,
2013-08-20 10:32:00,77.8,68.1,30.12,NW,317,0.0,0.0,72,0.00,,---,0.00,VWS V14.00,2013-08-20 14:32:00,
2013-08-20 10:37:00,78.3,67.7,30.11,NW,317,0.0,0.0,70,0.00,,---,0.00,VWS V14.00,2013-08-20 14:37:00,
2013-08-20 10:42:00,78.5,67.1,30.12,NW,317,0.0,6.0,68,0.00,,---,0.00,VWS V14.00,2013-08-20 14:42:00,
2013-08-20 10:47:00,78.6,66.7,30.12,NW,317,4.0,6.0,67,0.00,,---,0.00,VWS V14.00,2013-08-20 14:47:00,
2013-08-20 10:52:00,78.7,67.3,30.12,NW,317,0.0,6.0,68,0.00,,---,0.00,VWS V14.00,2013-08-20 14:52:00,
2013-08-20 10:57:00,79.0,67.6,30.12,NW,317,0.0,6.0,68,0.00,,---,0.00,VWS V14.00,2013-08-20 14:57:00,
2013-08-20 11:02:00,79.3,67.4,30.12,NW,317,0.0,0.0,67,0.00,,---,0.00,VWS V14.00,2013-08-20 15:02:00,
2013-08-20 11:07:00,79.7,67.3,30.11,NW,317,0.0,1.0,66,0.00,,---,0.00,VWS V14.00,2013-08-20 15:07:00,
2013-08-20 11:12:00,80.1,67.7,30.12,NW,317,0.0,1.0,66,0.00,,---,0.00,VWS V14.00,2013-08-20 15:12:00,
2013-08-20 11:17:00,80.3,67.0,30.12,NW,317,4.0,4.0,64,0.00,,---,0.00,VWS V14.00,2013-08-20 15:17:00,
2013-08-20 11:22:00,80.3,67.0,30.11,NW,317,0.0,4.0,64,0.00,,---,0.00,VWS V14.00,2013-08-20 15:22:00,
2013-08-20 11:27:00,80.2,66.5,30.11,NW,317,0.0,4.0,63,0.00,,---,0.00,VWS V14.00,2013-08-20 15:27:00,
2013-08-20 11:32:00,80.3,67.0,30.11,NW,317,0.0,4.0,64,0.00,,---,0.00,VWS V14.00,2013-08-20 15:32:00,
2013-08-20 11:37:00,80.6,67.3,30.11,NW,320,5.0,5.0,64,0.00,,---,0.00,VWS V14.00,2013-08-20 15:37:00,
2013-08-20 11:42:00,80.7,66.5,30.11,NW,320,0.0,7.0,62,0.00,,---,0.00,VWS V14.00,2013-08-20 15:42:00,
2013-08-20 11:47:00,80.9,66.2,30.11,NW,320,0.0,7.0,61,0.00,,---,0.00,VWS V14.00,2013-08-20 15:47:00,
2013-08-20 11:52:00,81.3,66.6,30.11,NW,320,0.0,7.0,61,0.00,,---,0.00,VWS V14.00,2013-08-20 15:52:00,
2013-08-20 11:57:00,81.4,65.7,30.11,NW,321,0.0,7.0,59,0.00,,---,0.00,VWS V14.00,2013-08-20 15:57:00,
2013-08-20 12:02:00,81.7,65.5,30.11,NW,321,0.0,0.0,58,0.00,,---,0.00,VWS V14.00,2013-08-20 16:02:00,
2013-08-20 12:07:00,82.1,65.4,30.11,NW,321,0.0,0.0,57,0.00,,---,0.00,VWS V14.00,2013-08-20 16:07:00,
2013-08-20 12:12:00,82.2,63.4,30.11,NW,321,4.0,5.0,53,0.00,,---,0.00,VWS V14.00,2013-08-20 16:12:00,
2013-08-20 12:17:00,82.3,65.6,30.11,NW,321,0.0,5.0,57,0.00,,---,0.00,VWS V14.00,2013-08-20 16:17:00,
2013-08-20 12:22:00,82.6,65.3,30.10,NE,45,0.0,6.0,56,0.00,,---,0.00,VWS V14.00,2013-08-20 16:22:00,
2013-08-20 12:27:00,82.8,66.5,30.10,NE,44,0.0,6.0,58,0.00,,---,0.00,VWS V14.00,2013-08-20 16:27:00,
2013-08-20 12:32:00,82.8,65.5,30.10,NE,47,0.0,0.0,56,0.00,,---,0.00,VWS V14.00,2013-08-20 16:32:00,
2013-08-20 12:37:00,83.0,65.7,30.10,NE,47,0.0,0.0,56,0.00,,---,0.00,VWS V14.00,2013-08-20 16:37:00,
2013-08-20 12:42:00,82.9,66.6,30.10,NE,47,1.0,2.0,58,0.00,,---,0.00,VWS V14.00,2013-08-20 16:42:00,
2013-08-20 12:48:00,82.9,65.6,30.10,NE,47,0.0,3.0,56,0.00,,---,0.00,VWS V14.00,2013-08-20 16:48:00,
2013-08-20 12:53:00,83.0,66.7,30.10,NE,46,0.0,3.0,58,0.00,,---,0.00,VWS V14.00,2013-08-20 16:53:00,
2013-08-20 12:58:00,83.1,64.8,30.10,North,349,4.0,8.0,54,0.00,,---,0.00,VWS V14.00,2013-08-20 16:58:00,
2013-08-20 13:03:00,83.0,64.7,30.10,North,350,0.0,5.0,54,0.00,,---,0.00,VWS V14.00,2013-08-20 17:03:00,
2013-08-20 13:08:00,83.1,64.8,30.10,North,350,0.0,5.0,54,0.00,,---,0.00,VWS V14.00,2013-08-20 17:08:00,
2013-08-20 13:13:00,83.2,64.3,30.09,NNW,347,4.0,6.0,53,0.00,,---,0.00,VWS V14.00,2013-08-20 17:13:00,
2013-08-20 13:18:00,83.1,62.5,30.09,NNW,347,0.0,7.0,50,0.00,,---,0.00,VWS V14.00,2013-08-20 17:18:00,
2013-08-20 13:23:00,83.3,63.3,30.09,NNW,347,0.0,7.0,51,0.00,,---,0.00,VWS V14.00,2013-08-20 17:23:00,
2013-08-20 13:28:00,83.3,62.7,30.09,NNW,348,0.0,7.0,50,0.00,,---,0.00,VWS V14.00,2013-08-20 17:28:00,
2013-08-20 13:33:00,83.7,63.7,30.09,North,360,0.0,1.0,51,0.00,,---,0.00,VWS V14.00,2013-08-20 17:33:00,
2013-08-20 13:38:00,84.0,63.4,30.09,NNE,13,0.0,1.0,50,0.00,,---,0.00,VWS V14.00,2013-08-20 17:38:00,
2013-08-20 13:43:00,84.4,63.8,30.09,NNE,13,0.0,1.0,50,0.00,,---,0.00,VWS V14.00,2013-08-20 17:43:00,
2013-08-20 13:48:00,84.6,63.3,30.09,NNE,13,1.0,1.0,49,0.00,,---,0.00,VWS V14.00,2013-08-20 17:48:00,
2013-08-20 13:53:00,84.5,62.7,30.09,NNE,13,0.0,2.0,48,0.00,,---,0.00,VWS V14.00,2013-08-20 17:53:00,
2013-08-20 13:58:00,84.4,61.4,30.09,NNE,12,0.0,7.0,46,0.00,,---,0.00,VWS V14.00,2013-08-20 17:58:00,
2013-08-20 14:03:00,84.4,63.8,30.09,NNE,12,0.0,1.0,50,0.00,,---,0.00,VWS V14.00,2013-08-20 18:03:00,
2013-08-20 14:08:00,84.7,64.0,30.09,NNE,12,0.0,3.0,50,0.00,,---,0.00,VWS V14.00,2013-08-20 18:08:00,
2013-08-20 14:13:00,84.6,62.2,30.09,NNE,12,0.0,3.0,47,0.00,,---,0.00,VWS V14.00,2013-08-20 18:13:00,
2013-08-20 14:18:00,84.7,62.9,30.09,NNE,12,1.0,3.0,48,0.00,,---,0.00,VWS V14.00,2013-08-20 18:18:00,
2013-08-20 14:23:00,84.7,64.6,30.08,NNE,12,0.0,4.0,51,0.00,,---,0.00,VWS V14.00,2013-08-20 18:23:00,
2013-08-20 14:28:00,84.6,62.2,30.08,North,355,6.0,6.0,47,0.00,,---,0.00,VWS V14.00,2013-08-20 18:28:00,
2013-08-20 14:33:00,84.4,63.2,30.08,North,355,0.0,6.0,49,0.00,,---,0.00,VWS V14.00,2013-08-20 18:33:00,
2013-08-20 14:38:00,84.4,62.6,30.08,North,355,5.0,6.0,48,0.00,,---,0.00,VWS V14.00,2013-08-20 18:38:00,
2013-08-20 14:43:00,84.4,62.0,30.07,North,355,0.0,7.0,47,0.00,,---,0.00,VWS V14.00,2013-08-20 18:43:00,
2013-08-20 14:48:00,84.5,63.8,30.07,North,355,0.0,7.0,50,0.00,,---,0.00,VWS V14.00,2013-08-20 18:48:00,
2013-08-20 14:53:00,84.6,65.1,30.07,North,355,0.0,7.0,52,0.00,,---,0.00,VWS V14.00,2013-08-20 18:53:00,
2013-08-20 14:58:00,84.7,64.6,30.07,North,355,0.0,0.0,51,0.00,,---,0.00,VWS V14.00,2013-08-20 18:58:00,
2013-08-20 15:04:00,84.8,64.1,30.07,North,355,0.0,1.0,50,0.00,,---,0.00,VWS V14.00,2013-08-20 19:04:00,
2013-08-20 15:09:00,85.1,63.8,30.07,North,355,0.0,1.0,49,0.00,,---,0.00,VWS V14.00,2013-08-20 19:09:00,
2013-08-20 15:14:00,85.0,64.9,30.07,North,355,0.0,6.0,51,0.00,,---,0.00,VWS V14.00,2013-08-20 19:14:00,
2013-08-20 15:19:00,84.6,63.9,30.07,North,355,0.0,6.0,50,0.00,,---,0.00,VWS V14.00,2013-08-20 19:19:00,
2013-08-20 15:24:00,84.4,64.3,30.07,North,355,4.0,6.0,51,0.00,,---,0.00,VWS V14.00,2013-08-20 19:24:00,
2013-08-20 15:29:00,84.6,62.8,30.07,North,355,0.0,0.0,48,0.00,,---,0.00,VWS V14.00,2013-08-20 19:29:00,
2013-08-20 15:34:00,84.7,64.0,30.07,North,355,0.0,0.0,50,0.00,,---,0.00,VWS V14.00,2013-08-20 19:34:00,
2013-08-20 15:39:00,84.8,63.0,30.07,North,355,0.0,2.0,48,0.00,,---,0.00,VWS V14.00,2013-08-20 19:39:00,
2013-08-20 15:44:00,84.7,63.5,30.07,North,355,0.0,2.0,49,0.00,,---,0.00,VWS V14.00,2013-08-20 19:44:00,
2013-08-20 15:49:00,84.6,64.5,30.07,North,355,1.0,2.0,51,0.00,,---,0.00,VWS V14.00,2013-08-20 19:49:00,
2013-08-20 15:54:00,84.6,63.3,30.07,North,355,0.0,5.0,49,0.00,,---,0.00,VWS V14.00,2013-08-20 19:54:00,
2013-08-20 15:59:00,84.8,63.5,30.07,North,355,0.0,0.0,49,0.00,,---,0.00,VWS V14.00,2013-08-20 19:59:00,
2013-08-20 16:04:00,84.9,63.6,30.06,North,355,4.0,5.0,49,0.00,,---,0.00,VWS V14.00,2013-08-20 20:04:00,
2013-08-20 16:09:00,84.9,63.6,30.07,North,355,0.0,5.0,49,0.00,,---,0.00,VWS V14.00,2013-08-20 20:09:00,
2013-08-20 16:14:00,84.9,64.2,30.07,North,355,0.0,5.0,50,0.00,,---,0.00,VWS V14.00,2013-08-20 20:14:00,
2013-08-20 16:19:00,85.0,63.7,30.07,North,355,0.0,5.0,49,0.00,,---,0.00,VWS V14.00,2013-08-20 20:19:00,
2013-08-20 16:24:00,85.1,63.2,30.06,North,355,1.0,5.0,48,0.00,,---,0.00,VWS V14.00,2013-08-20 20:24:00,
2013-08-20 16:29:00,85.1,63.2,30.06,North,355,0.0,0.0,48,0.00,,---,0.00,VWS V14.00,2013-08-20 20:29:00,
2013-08-20 16:34:00,85.2,63.3,30.06,North,355,0.0,1.0,48,0.00,,---,0.00,VWS V14.00,2013-08-20 20:34:00,
2013-08-20 16:39:00,85.1,63.8,30.06,North,355,0.0,1.0,49,0.00,,---,0.00,VWS V14.00,2013-08-20 20:39:00,
2013-08-20 16:44:00,84.9,63.6,30.06,North,355,0.0,4.0,49,0.00,,---,0.00,VWS V14.00,2013-08-20 20:44:00,
2013-08-20 16:49:00,84.8,64.1,30.06,North,355,0.0,4.0,50,0.00,,---,0.00,VWS V14.00,2013-08-20 20:49:00,
2013-08-20 16:54:00,84.8,63.5,30.06,North,355,0.0,4.0,49,0.00,,---,0.00,VWS V14.00,2013-08-20 20:54:00,
2013-08-20 16:59:00,84.8,64.7,30.06,North,355,0.0,0.0,51,0.00,,---,0.00,VWS V14.00,2013-08-20 20:59:00,
2013-08-20 17:04:00,84.8,64.7,30.07,North,355,0.0,0.0,51,0.00,,---,0.00,VWS V14.00,2013-08-20 21:04:00,
2013-08-20 17:10:00,84.8,65.8,30.06,North,355,0.0,0.0,53,0.00,,---,0.00,VWS V14.00,2013-08-20 21:10:00,
2013-08-20 17:15:00,84.7,64.6,30.06,North,355,0.0,4.0,51,0.00,,---,0.00,VWS V14.00,2013-08-20 21:15:00,
2013-08-20 17:20:00,84.5,65.5,30.06,North,355,0.0,4.0,53,0.00,,---,0.00,VWS V14.00,2013-08-20 21:20:00,
2013-08-20 17:25:00,84.3,64.8,30.06,North,355,0.0,4.0,52,0.00,,---,0.00,VWS V14.00,2013-08-20 21:25:00,
2013-08-20 17:30:00,84.0,64.5,30.06,North,355,0.0,0.0,52,0.00,,---,0.00,VWS V14.00,2013-08-20 21:30:00,
2013-08-20 17:35:00,83.9,64.9,30.06,North,355,0.0,0.0,53,0.00,,---,0.00,VWS V14.00,2013-08-20 21:35:00,
2013-08-20 17:40:00,84.0,66.1,30.06,North,355,0.0,0.0,55,0.00,,---,0.00,VWS V14.00,2013-08-20 21:40:00,
2013-08-20 17:45:00,83.9,66.0,30.06,North,355,0.0,0.0,55,0.00,,---,0.00,VWS V14.00,2013-08-20 21:45:00,
2013-08-20 17:50:00,83.7,65.3,30.07,North,355,0.0,0.0,54,0.00,,---,0.00,VWS V14.00,2013-08-20 21:50:00,
2013-08-20 17:55:00,83.5,66.2,30.07,North,355,0.0,0.0,56,0.00,,---,0.00,VWS V14.00,2013-08-20 21:55:00,
2013-08-20 18:00:00,83.3,66.0,30.07,North,355,0.0,0.0,56,0.00,,---,0.00,VWS V14.00,2013-08-20 22:00:00,
2013-08-20 18:05:00,83.2,67.4,30.07,North,355,0.0,0.0,59,0.00,,---,0.00,VWS V14.00,2013-08-20 22:05:00,
2013-08-20 18:10:00,83.1,67.3,30.07,North,355,0.0,0.0,59,0.00,,---,0.00,VWS V14.00,2013-08-20 22:10:00,
2013-08-20 18:15:00,83.0,66.2,30.07,North,355,0.0,0.0,57,0.00,,---,0.00,VWS V14.00,2013-08-20 22:15:00,
2013-08-20 18:20:00,82.9,66.1,30.07,North,355,0.0,0.0,57,0.00,,---,0.00,VWS V14.00,2013-08-20 22:20:00,
2013-08-20 18:25:00,82.7,66.9,30.07,North,355,0.0,0.0,59,0.00,,---,0.00,VWS V14.00,2013-08-20 22:25:00,
2013-08-20 18:30:00,82.7,67.9,30.07,North,355,0.0,0.0,61,0.00,,---,0.00,VWS V14.00,2013-08-20 22:30:00,
2013-08-20 18:35:00,82.5,66.2,30.06,North,355,0.0,0.0,58,0.00,,---,0.00,VWS V14.00,2013-08-20 22:35:00,
2013-08-20 18:40:00,82.4,67.1,30.06,North,355,0.0,0.0,60,0.00,,---,0.00,VWS V14.00,2013-08-20 22:40:00,
2013-08-20 18:45:00,82.4,67.6,30.06,North,355,0.0,0.0,61,0.00,,---,0.00,VWS V14.00,2013-08-20 22:45:00,
2013-08-20 18:50:00,82.3,66.6,30.07,North,355,0.0,0.0,59,0.00,,---,0.00,VWS V14.00,2013-08-20 22:50:00,
2013-08-20 18:55:00,82.1,67.8,30.07,North,355,0.0,0.0,62,0.00,,---,0.00,VWS V14.00,2013-08-20 22:55:00,
2013-08-20 19:00:00,81.8,67.1,30.07,North,355,0.0,0.0,61,0.00,,---,0.00,VWS V14.00,2013-08-20 23:00:00,
2013-08-20 19:05:00,81.6,66.9,30.07,North,355,0.0,0.0,61,0.00,,---,0.00,VWS V14.00,2013-08-20 23:05:00,
2013-08-20 19:11:00,81.3,68.0,30.07,North,355,0.0,0.0,64,0.00,,---,0.00,VWS V14.00,2013-08-20 23:11:00,
2013-08-20 19:16:00,81.0,67.7,30.07,North,355,0.0,0.0,64,0.00,,---,0.00,VWS V14.00,2013-08-20 23:16:00,
2013-08-20 19:21:00,80.7,67.8,30.07,North,355,0.0,0.0,65,0.00,,---,0.00,VWS V14.00,2013-08-20 23:21:00,
2013-08-20 19:26:00,80.3,67.9,30.07,North,355,0.0,0.0,66,0.00,,---,0.00,VWS V14.00,2013-08-20 23:26:00,
2013-08-20 19:31:00,79.8,67.4,30.07,North,355,0.0,0.0,66,0.00,,---,0.00,VWS V14.00,2013-08-20 23:31:00,
2013-08-20 19:36:00,79.4,67.1,30.07,North,355,0.0,0.0,66,0.00,,---,0.00,VWS V14.00,2013-08-20 23:36:00,
2013-08-20 19:41:00,79.2,67.7,30.07,North,355,0.0,0.0,68,0.00,,---,0.00,VWS V14.00,2013-08-20 23:41:00,
2013-08-20 19:46:00,78.7,67.7,30.08,North,355,0.0,0.0,69,0.00,,---,0.00,VWS V14.00,2013-08-20 23:46:00,
2013-08-20 19:51:00,78.4,67.8,30.08,North,355,0.0,0.0,70,0.00,,---,0.00,VWS V14.00,2013-08-20 23:51:00,
2013-08-20 19:56:00,78.1,67.1,30.08,North,355,0.0,0.0,69,0.00,,---,0.00,VWS V14.00,2013-08-20 23:56:00,
2013-08-20 20:01:00,77.8,67.2,30.08,North,355,0.0,0.0,70,0.00,,---,0.00,VWS V14.00,2013-08-21 00:01:00,
2013-08-20 20:06:00,77.5,67.4,30.08,North,355,0.0,0.0,71,0.00,,---,0.00,VWS V14.00,2013-08-21 00:06:00,
2013-08-20 20:11:00,77.1,67.8,30.08,North,355,0.0,0.0,73,0.00,,---,0.00,VWS V14.00,2013-08-21 00:11:00,
2013-08-20 20:16:00,76.7,67.4,30.08,North,355,0.0,0.0,73,0.00,,---,0.00,VWS V14.00,2013-08-21 00:16:00,
2013-08-20 20:21:00,76.5,67.6,30.08,North,355,0.0,0.0,74,0.00,,---,0.00,VWS V14.00,2013-08-21 00:21:00,
2013-08-20 20:26:00,76.2,67.7,30.08,North,355,0.0,0.0,75,0.00,,---,0.00,VWS V14.00,2013-08-21 00:26:00,
2013-08-20 20:31:00,75.9,67.4,30.08,North,355,0.0,0.0,75,0.00,,---,0.00,VWS V14.00,2013-08-21 00:31:00,
2013-08-20 20:36:00,75.7,67.2,30.08,North,355,0.0,0.0,75,0.00,,---,0.00,VWS V14.00,2013-08-21 00:36:00,
2013-08-20 20:41:00,75.5,67.4,30.08,North,355,0.0,0.0,76,0.00,,---,0.00,VWS V14.00,2013-08-21 00:41:00,
2013-08-20 20:46:00,75.4,67.7,30.09,North,355,0.0,0.0,77,0.00,,---,0.00,VWS V14.00,2013-08-21 00:46:00,
2013-08-20 20:51:00,75.3,67.6,30.09,North,355,0.0,0.0,77,0.00,,---,0.00,VWS V14.00,2013-08-21 00:51:00,
2013-08-20 20:56:00,75.2,67.5,30.09,North,355,0.0,0.0,77,0.00,,---,0.00,VWS V14.00,2013-08-21 00:56:00,
2013-08-20 21:02:00,75.1,67.8,30.09,North,355,0.0,0.0,78,0.00,,---,0.00,VWS V14.00,2013-08-21 01:02:00,
2013-08-20 21:07:00,75.1,67.8,30.09,North,355,0.0,0.0,78,0.00,,---,0.00,VWS V14.00,2013-08-21 01:07:00,
2013-08-20 21:12:00,75.1,68.2,30.10,North,355,0.0,0.0,79,0.00,,---,0.00,VWS V14.00,2013-08-21 01:12:00,
2013-08-20 21:17:00,75.0,68.1,30.10,North,355,0.0,0.0,79,0.00,,---,0.00,VWS V14.00,2013-08-21 01:17:00,
2013-08-20 21:19:00,74.9,67.9,30.10,North,355,0.0,0.0,79,0.00,,---,0.00,VWS V14.00,2013-08-21 01:19:00,
2013-08-20 21:24:00,74.9,67.9,30.10,North,355,0.0,0.0,79,0.00,,---,0.00,VWS V14.00,2013-08-21 01:24:00,
2013-08-20 21:29:00,74.8,67.9,30.10,North,355,0.0,0.0,79,0.00,,---,0.00,VWS V14.00,2013-08-21 01:29:00,
2013-08-20 21:34:00,74.7,67.8,30.10,North,355,0.0,0.0,79,0.00,,---,0.00,VWS V14.00,2013-08-21 01:34:00,
2013-08-20 21:39:00,74.6,67.7,30.10,North,355,0.0,0.0,79,0.00,,---,0.00,VWS V14.00,2013-08-21 01:39:00,
2013-08-20 21:44:00,74.5,67.9,30.10,North,355,0.0,0.0,80,0.00,,---,0.00,VWS V14.00,2013-08-21 01:44:00,
2013-08-20 21:49:00,74.4,67.8,30.10,North,355,0.0,0.0,80,0.00,,---,0.00,VWS V14.00,2013-08-21 01:49:00,
2013-08-20 21:54:00,74.3,68.1,30.10,North,355,0.0,0.0,81,0.00,,---,0.00,VWS V14.00,2013-08-21 01:54:00,
2013-08-20 21:59:00,74.1,67.9,30.10,North,355,0.0,0.0,81,0.00,,---,0.00,VWS V14.00,2013-08-21 01:59:00,
2013-08-20 22:05:00,74.0,67.8,30.10,North,355,0.0,0.0,81,0.00,,---,0.00,VWS V14.00,2013-08-21 02:05:00,
2013-08-20 22:10:00,73.9,67.7,30.11,North,355,0.0,0.0,81,0.00,,---,0.00,VWS V14.00,2013-08-21 02:10:00,
2013-08-20 22:15:00,73.9,68.1,30.10,North,355,0.0,0.0,82,0.00,,---,0.00,VWS V14.00,2013-08-21 02:15:00,
2013-08-20 22:20:00,73.8,68.0,30.11,North,355,0.0,0.0,82,0.00,,---,0.00,VWS V14.00,2013-08-21 02:20:00,
2013-08-20 22:25:00,73.7,67.9,30.11,North,355,0.0,0.0,82,0.00,,---,0.00,VWS V14.00,2013-08-21 02:25:00,
2013-08-20 22:30:00,73.6,67.8,30.11,North,355,0.0,0.0,82,0.00,,---,0.00,VWS V14.00,2013-08-21 02:30:00,
2013-08-20 22:35:00,73.5,68.0,30.11,North,355,0.0,0.0,83,0.00,,---,0.00,VWS V14.00,2013-08-21 02:35:00,
2013-08-20 22:40:00,73.4,67.9,30.11,North,355,0.0,0.0,83,0.00,,---,0.00,VWS V14.00,2013-08-21 02:40:00,
2013-08-20 22:45:00,73.3,67.8,30.11,North,355,0.0,0.0,83,0.00,,---,0.00,VWS V14.00,2013-08-21 02:45:00,
2013-08-20 22:50:00,73.2,67.7,30.11,North,355,0.0,0.0,83,0.00,,---,0.00,VWS V14.00,2013-08-21 02:50:00,
2013-08-20 22:55:00,73.1,67.6,30.11,North,355,0.0,0.0,83,0.00,,---,0.00,VWS V14.00,2013-08-21 02:55:00,
2013-08-20 23:00:00,73.0,67.9,30.11,North,355,0.0,0.0,84,0.00,,---,0.00,VWS V14.00,2013-08-21 03:00:00,
2013-08-20 23:05:00,72.9,67.8,30.11,North,355,0.0,0.0,84,0.00,,---,0.00,VWS V14.00,2013-08-21 03:05:00,
2013-08-20 23:10:00,72.8,67.7,30.11,North,355,0.0,0.0,84,0.00,,---,0.00,VWS V14.00,2013-08-21 03:10:00,
2013-08-20 23:15:00,72.7,67.9,30.11,North,355,0.0,0.0,85,0.00,,---,0.00,VWS V14.00,2013-08-21 03:15:00,
2013-08-20 23:20:00,72.6,67.8,30.11,North,355,0.0,0.0,85,0.00,,---,0.00,VWS V14.00,2013-08-21 03:20:00,
2013-08-20 23:25:00,72.5,67.7,30.11,North,355,0.0,0.0,85,0.00,,---,0.00,VWS V14.00,2013-08-21 03:25:00,
2013-08-20 23:30:00,72.4,67.6,30.11,North,355,0.0,0.0,85,0.00,,---,0.00,VWS V14.00,2013-08-21 03:30:00,
2013-08-20 23:35:00,72.3,67.5,30.12,North,355,0.0,0.0,85,0.00,,---,0.00,VWS V14.00,2013-08-21 03:35:00,
2013-08-20 23:40:00,72.2,67.4,30.11,North,355,0.0,0.0,85,0.00,,---,0.00,VWS V14.00,2013-08-21 03:40:00,
2013-08-20 23:45:00,72.1,67.3,30.12,North,355,0.0,0.0,85,0.00,,---,0.00,VWS V14.00,2013-08-21 03:45:00,
2013-08-20 23:50:00,71.9,67.2,30.11,North,355,0.0,0.0,85,0.00,,---,0.00,VWS V14.00,2013-08-21 03:50:00,
2013-08-20 23:55:00,71.7,66.9,30.12,North,355,0.0,0.0,85,0.00,,---,0.00,VWS V14.00,2013-08-21 03:55:00,